Location: *
(28.3744°N, 81.5492°W)
Time: 03:49:51
(UTC+00:00)

USA 186 - Pass Details

Date: 15 June 2025
Orbit: 338 x 359 km, 97.0° (Epoch: 19 May)

Event Time Altitude Azimuth Distance (km) Brightness Sun altitude
Exits shadow 00:57:26 - 119° (ESE) 1,328 3.6 -7.1°
Reaches altitude 10° 00:57:33 10° 117° (ESE) 1,292 3.5 -7.1°
Maximum altitude 00:59:24 17° 74° (ENE) 986 3.2 -7.5°
Drops below altitude 10° 01:01:16 10° 32° (NNE) 1,301 4.3 -7.8°
Sets 01:03:37 0° 10° (N) 2,149 5.7 -8.3°
